Regional Weather Roundup
Issued by NWS

Home | Current Version | Previous Version | Text Only | Print | Product List | Glossary Off
Versions: 1 2 3 4 5 6 7 8 9 10 11 12 13 14 15 16 17 18 19 20 21 22 23 24 25 26 27 28 29 30 31 32 33 34 35 36 37 38 39 40 41 42 43 44 45 46 47 48 49 50

000
ASUS43 KLOT 312108
RWRIL

ILLINOIS REGIONAL WEATHER ROUNDUP
NATIONAL WEATHER SERVICE CHICAGO/ROMEOVILLE IL
400 PM CDT TUE MAY 31 2016

NOTE: "FAIR" INDICATES FEW OR NO CLOUDS BELOW 12,000 FEET WITH NO
SIGNIFICANT WEATHER AND/OR OBSTRUCTIONS TO VISIBILITY.

* THESE STATIONS ARE NOT UNDER NWS QUALITY CONTROL. THEY ALSO MAY NOT
  REPORT WEATHER SUCH AS PRECIPITATION OR FOG.

ILZ001-002-007-009-015-016-024-312200-
NORTHWEST ILLINOIS

CITY           SKY/WX    TMP DP  RH WIND       PRES   REMARKS
MOLINE         LGT RAIN  76  63  64 SE12      29.91F
STERLING*      CLOUDY    70  65  84 E14       29.94F
SAVANNA*       PTSUNNY   75  63  66 SE10      29.94F
$$

ILZ003-004-008-010-011-017-018-312200-
NORTH CENTRAL ILLINOIS

CITY           SKY/WX    TMP DP  RH WIND       PRES   REMARKS
ROCKFORD       LGT RAIN  67  64  90 S8        30.02F
FREEPORT*      CLOUDY    66  63  89 SE16      29.98F
ROCHELLE*      RAIN      65  63  93 NE6       30.00F
DE KALB*       RAIN      64  63  95 NE7       30.03S
$$

ILZ005-006-012>014-019>023-312200-
NORTHEAST ILLINOIS

CITY           SKY/WX    TMP DP  RH WIND       PRES   REMARKS
CHICAGO-OHARE  TSTM      66  63  90 NW16      30.01R FOG
CHICAGO-MIDWAY TSTM      66  61  84 NW13      30.00R
AURORA         LGT RAIN  67  64  90 N13       29.98F
LANSING*       CLOUDY    71  62  72 NW9       29.98R
JOLIET*        CLOUDY    68  65  89 N8G18     29.99R
WAUKEGAN       CLOUDY    72  61  68 W13G23    30.02R
DUPAGE AIRPORT RAIN      65  62  90 N14       30.00F
KANKAKEE*      CLOUDY    69  62  77 N13G18    29.97R
WHEELING       HVY RAIN  68  61  78 W14G22    30.05R
MORRIS*        CLOUDY    67  65  91 N5        29.98R
ROMEOVILLE*    PTSUNNY   66  62  86 N14G22    29.99R
NORTHERLY ISL    N/A     68  61  78 SW13        N/A
$$

LMZ740>746-312200-
SOUTHERN LAKE MICHIGAN

STATION/POSITION SKY/WX   TEMP    WIND        PRES    VSBY  WAVE
                          AIR SEA DIR/SP/G                  HT/PER
                          (F)     (DEG/KT/KT) (MB)    (MI)  (FT/S)
SOUTHERN BUOY              61 56   80/  6/  6 1014.5F         0
WILMETTE HARBOR            65 62  270/ 10/ 14   N/A           1/ 2
HARRISON CRIB              71      70/ 17/ 17   N/A
BURNHAM HARBOR             66     310/ 13/ 26   N/A
CALUMET HARBOR             71      40/ 10/ 14 1013.3F
BURNS HARBOR               73      70/ 11/ 17 1014.2F
MICHIGAN CITY              79      30/ 12/ 13   N/A
MICHIGAN CITY 6N           71 63  200/ 16/ 19   N/A           1
ST. JOSEPH                 76 67   80/  8/ 10   N/A           1
$$

ILZ025>027-034>036-040-047-049-050-058-095>099-312200-
WEST-CENTRAL ILLINOIS

CITY           SKY/WX    TMP DP  RH WIND       PRES   REMARKS
QUINCY         CLOUDY    79  61  53 S10       29.91F HX  80
GALESBURG*     CLOUDY    79  61  54 S7        29.91F HX  80
MACOMB*        CLOUDY    81  57  44 SE9       29.94F HX  81
JACKSONVILLE*  CLOUDY    78  62  58 CALM      29.92F HX  80
PITTSFIELD*    CLOUDY    81  63  55 S8        29.92F HX  82
$$

ILZ028>032-037-038-041>044-048-051>054-059>061-312200-
CENTRAL ILLINOIS

CITY           SKY/WX    TMP DP  RH WIND       PRES   REMARKS
PONTIAC        CLOUDY    75  65  72 N14       29.96F
BLOOMINGTON    MOSUNNY   81  61  50 VRB5      29.94F HX  82
DECATUR        CLOUDY    83  63  50 SW3       29.93F HX  84
PEORIA         CLOUDY    77  61  57 S5        29.93F
LACON*         PTSUNNY   73  63  68 NE5       29.94F
LINCOLN*       CLOUDY    78  67  69 CALM      29.93F HX  80
SPRINGFIELD    CLOUDY    78  66  66 S6        29.93F HX  80
TAYLORVILLE    HVY RAIN  66  63  88 W8        29.97R
$$

ILZ033-039-045-046-055>057-062-063-312200-
EAST-CENTRAL ILLINOIS

CITY           SKY/WX    TMP DP  RH WIND       PRES   REMARKS
CHAMPAIGN      SUNNY     86  59  39 VRB5      29.91F HX  85
RANTOUL*       CLOUDY    86  60  41 W7        29.92F HX  85
MATTOON        PTSUNNY   82  58  43 S9        29.91F HX  82
PARIS*         MOSUNNY   87  56  34 SE9       29.92F HX  86
$$

ILZ079-100>102-312200-
SOUTHWEST ILLINOIS

CITY           SKY/WX    TMP DP  RH WIND       PRES   REMARKS
CAHOKIA*       SUNNY     84  64  50 S7        29.90F HX  85
SPARTA*        MOSUNNY   82  64  53 S5        29.93F HX  84
$$

ILZ064>066-069>071-074>076-080>082-084>086-088>090-092>094-312200-
SOUTH-CENTRAL ILLINOIS

CITY           SKY/WX    TMP DP  RH WIND       PRES   REMARKS
CARBONDALE     PTSUNNY   84  63  49 SW8       29.91F HX  85
CAIRO*         PTSUNNY   83  64  53 W3        29.90F HX  84
EFFINGHAM*     LGT RAIN  75  67  76 SW6       29.95F
MARION         PTSUNNY   82  66  57 SW6       29.92F HX  85
MT. VERNON     CLOUDY    79  64  61 N5        29.93F HX  81
CENTRALIA*     CLOUDY    73  67  81 N3        29.92F
SALEM*         RAIN      71  67  84 CALM      29.94F
METROPOLIS*    CLOUDY    85  65  50 S5        29.91F HX  87
$$

ILZ067-068-072-073-078-083-087-091-312200-
SOUTHEAST ILLINOIS

CITY           SKY/WX    TMP DP  RH WIND       PRES   REMARKS
LAWRENCEVILLE  SUNNY    N/A N/A N/A S9        29.92F
FLORA*         SUNNY     85  62  44 S7        29.93S HX  85
FAIRFIELD*     MOSUNNY   84  61  44 S5        29.90F HX  84
HARRISBURG*    PTSUNNY   83  66  55 SW8       29.92F HX  85
ROBINSON*      MOSUNNY   84  61  45 S9G17     29.93F HX  84
CARMI*         PTSUNNY   85  62  46 S12       29.91F HX  85
$$

ABBREVIATIONS USED IN REMARKS
   TC - TEMPERATURE IN CELSIUS
  WCI - WIND CHILL INDEX
   HX - HEAT INDEX
  VSB - VISIBILITY
$$




USA.gov is the U.S. government's official web portal to all federal, state and local government web resources and services.